www.pogodaiklimat.ru

Погода и климат >> Архив погоды >> Россия >> Ростовская область >> Чертково


АРХИВ ПОГОДЫ в Чертково

Время (UTC), дата Ветер
(напр.,м/с)
 
Видим.   Явления Облачность Т
(С)
Тd
(С)
f
(%)
Тe
(С)
Тes
(С)
Комфортность P
(гПа)
Po
(гПа)
Тmin
(С)
Tmax
(С)
R
(мм)
R24
(мм)
S
(см)
06 19.08 С 1 10 км {гроза, ливн. осадки} 9/9 600 м
[Cb cap]
+21.5 +19.3 87 +26 +27 душно 1016.0 999.1
09 19.08 штиль 0 20 км 10/10 600 м
[Cb cap]
+24.0 +19.4 75 +29 +29 душно 1016.8 1000.0
12 19.08 С 1 20 км 9/8 600 м
[Cb cap Ci fib]
+25.8 +19.5 68 +31 +33 очень
душно
1016.6 999.9
15 19.08 С 1 20 км 3/0
[Ci fib]
+24.9 +19.1 70 +30 +31 душно 1017.6 1000.8 +26.2 0.0
18 19.08 штиль 0 20 км ясно +21.9 +18.4 81 +27 +27 душно 1018.7 1001.7
21 19.08 штиль 0 20 км ясно +20.0 +16.8 82 +22 +22 комфорт 1019.3 1002.2
00 20.08 штиль 0 20 км ясно +19.2 +16.0 82 +21 +21 комфорт 1019.3 1002.2
03 20.08 штиль 0 20 км ясно +18.4 +15.8 85 +19 +19 1019.9 1002.7 +18.3
06 20.08 штиль 0 20 км 1/0
[Ac trans]
+23.2 +17.0 68 +28 +37 душно 1020.3 1003.4
09 20.08 С 2 20 км ясно +26.7 +17.5 57 +31 +45 душно 1019.9 1003.2
12 20.08 С 1 20 км ясно +28.7 +16.3 47 +32 +43 душно 1019.5 1002.9
15 20.08 С 1 20 км ясно +27.4 +15.4 48 +30 +31 жарко 1019.8 1003.1 +28.7
18 20.08 штиль 0 20 км ясно +22.2 +16.5 70 +26 +26 душно 1020.9 1004.0
21 20.08 С 1 20 км 10/0
[Ci fib]
+21.2 +14.4 65 +24 +24 комфорт 1020.9 1003.9
00 21.08 штиль 0 20 км ясно +18.8 +15.0 79 +20 +20 1021.4 1004.2
03 21.08 штиль 0 20 км ясно +18.1 +14.3 78 +18 +18 1021.7 1004.5 +17.7
06 21.08 С 2 20 км ясно +23.2 +15.8 63 +28 +35 душно 1021.5 1004.6
09 21.08 СВ 3 20 км ясно +27.2 +13.6 43 +29 +40 жарко 1020.2 1003.5
12 21.08 СВ 3 20 км ясно +29.0 +12.7 37 +30 +38 жарко 1018.7 1002.2
15 21.08 СВ 2 20 км ясно +28.3 +14.2 42 +30 +31 жарко 1018.3 1001.7 +29.3
18 21.08 штиль 0 20 км ясно +22.5 +15.9 66 +27 +27 душно 1018.8 1001.9
21 21.08 В 2 20 км ясно +22.4 +15.2 64 +26 +26 жарко 1018.5 1001.6
00 22.08 штиль 0 20 км ясно +19.7 +15.0 74 +21 +21 комфорт 1018.4 1001.3
03 22.08 штиль 0 20 км ясно +19.4 +14.9 75 +21 +21 комфорт 1018.9 1001.8 +18.7
06 22.08 В 2 20 км ясно +24.6 +15.3 56 +28 +34 душно 1018.9 1002.1
09 22.08 СВ 4 20 км ясно +29.3 +13.7 38 +31 +40 жарко 1018.3 1001.8
12 22.08 СВ 1 20 км ясно +30.8 +12.8 33 +32 +42 жарко 1017.7 1001.3
15 22.08 штиль 0 20 км 3/0
[Ci sp]
+29.0 +13.3 38 +31 +32 жарко 1017.7 1001.1 +30.9
18 22.08 штиль 0 20 км 4/0
[Ci sp]
+24.2 +14.6 55 +27 +27 жарко 1018.7 1001.9
21 22.08 штиль 0 20 км ясно +21.9 +14.1 61 +25 +25 комфорт 1018.9 1001.9
00 23.08 штиль 0 20 км 3/0
[Ci sp]
+21.3 +13.8 62 +24 +24 комфорт 1019.0 1002.0
03 23.08 штиль 0 20 км 6/0
[Ci fib]
+19.8 +14.1 70 +22 +22 комфорт 1019.6 1002.5 +19.7
06 23.08 СВ 1 20 км 10/0
[Ci fib]
+25.5 +14.5 51 +28 +34 жарко 1019.8 1003.0
09 23.08 СВ 3 20 км 10/0
[Ac cast Ci fib]
+29.4 +13.6 38 +31 +38 жарко 1019.8 1003.2
12 23.08 СВ 3 20 км 10/0
[Ac cast Ci fib]
+29.7 +13.9 38 +31 +35 жарко 1019.3 1002.8
15 23.08 С 1 20 км 10/4 600 м
[Cb cap Ac cast]
+27.2 +13.7 43 +29 +29 жарко 1019.8 1003.2 +30.7
18 23.08 штиль 0 20 км 3/0
[Ci ing]
+22.1 +14.9 64 +26 +26 душно 1020.5 1003.5
21 23.08 С 1 20 км ясно +21.9 +16.0 69 +26 +26 душно 1020.2 1003.2
00 24.08 штиль 0 20 км ясно +21.0 +16.4 75 +24 +24 комфорт 1020.6 1003.6
03 24.08 штиль 0 20 км 4/0
[Ac cast]
+19.3 +15.2 77 +21 +21 комфорт 1021.1 1004.0 +19.3
06 24.08 СВ 2 20 км 10/0
[Ci fib]
+23.4 +15.9 63 +28 +33 душно 1021.2 1004.3
09 24.08 С 2 20 км 10/0
[Ci fib]
+27.5 +16.5 51 +31 +42 душно 1020.5 1003.8
12 24.08 СВ 3 20 км 10/0
[Ci fib]
+29.3 +15.3 43 +32 +38 душно 1019.8 1003.2
15 24.08 СВ 1 20 км 3/0
[Ci fib]
+28.7 +13.9 40 +31 +31 жарко 1019.6 1003.0 +29.9
18 24.08 штиль 0 20 км 10/0
[Ci fib]
+22.0 +15.9 68 +26 +26 душно 1020.4 1003.5
21 24.08 штиль 0 20 км 10/0
[Ci fib]
+20.5 +15.5 73 +23 +23 комфорт 1020.5 1003.4
00 25.08 штиль 0 20 км ясно +19.7 +15.5 77 +22 +22 комфорт 1020.4 1003.3
03 25.08 штиль 0 20 км ясно +19.1 +15.1 78 +20 +21 1020.9 1003.8 +18.2
06 25.08 С 1 20 км 3/0
[Ci sp]
+24.0 +15.5 59 +27 +34 жарко 1021.4 1004.6
09 25.08 С 2 20 км 10/1 600 м
[Cu hum Ci fib]
+27.7 +14.2 44 +30 +39 жарко 1021.0 1004.3
12 25.08 С 1 20 км 3/3 600 м
[Cu hum]
+28.4 +11.8 36 +29 +36 жарко 1020.5 1003.9
15 25.08 С 1 20 км ясно +26.6 +6.2 27 +26 +27 жарко 1021.1 1004.3 +28.9
18 25.08 штиль 0 20 км ясно +20.7 +7.9 44 +22 +22 комфорт 1022.8 1005.6
21 25.08 штиль 0 20 км ясно +17.8 +10.0 60 +18 +18 1023.8 1006.5
00 26.08 штиль 0 20 км ясно +17.9 +8.1 53 +18 +18 1024.6 1007.2
03 26.08 СВ 1 20 км ясно +15.3 +7.9 61 +16 +16 1025.9 1008.4 +15.0

 

Местоположение метеостанции Чертково (Ростовская область, Россия): широта 49.38 долгота 40.17 высота над уровнем моря 145 м.

В архиве по умолчанию представлена погода в Чертково за последнюю неделю. Архивные данные за месяц целиком и за предыдущие месяцы, начиная с января 2011 года, Вы можете получить, выбрав интересующий диапазон дат из раскрывающегося списка и нажав кнопку "Ввод!".


*Определитесь, кто Вы:
робот инопланетянин человек

Внимание! Время в таблицах - всемирное. Для получения местного времени необходимо прибавить поправку, которая равна 3 ч.

Смотрите также архив погоды в соседних городах и на ближайших метеорологических станциях:

Погода в Беловодске (Луганская область, Украина) (46 км)
Погода в Миллерово (Ростовская область, Россия) (52 км)
Погода в Богучаре (Воронежская область, Россия) (68 км)
Погода в Казанской (Ростовская область, Россия) (85 км)
Погода в Павловск (Воронежская область, Россия) (119 км)
Погода в Каменск-Шахтинском (Ростовская область, Россия) (121 км)
Погода в Боковской (Ростовская область, Россия) (122 км)
Погода в Калаче (Воронежская область, Россия) (132 км)
Погода в Белой Калитве (Ростовская область, Россия) (136 км)
Погода в Сватово (Луганская область, Украина) (145 км)

Пояснения к столбцам:

Ветер - указаны скорость ветра в м/с - средняя за 10 мин, порывы в срок и между сроками (в фигурных скобках) и направление, откуда дует ветер: С - северный, СВ - северо-восточный, В - восточный, ЮВ - юго-восточный, Ю - южный, ЮЗ - юго-западный, З - западный, СЗ - северо-западный.
Видимость - горизонтальная дальность видимости в метрах или километрах. При видимости от 1 до 10 км при отсутствии осадков обычно наблюдается дымка, при ухудшении видимости до 1 км и менее - туман. В сухую погоду видимость может ухудшаться дымом, пылью или мглою.
Явления - указаны атмосферные явления, наблюдавшиеся в срок или в последний час перед сроком; фигурными скобками обозначены явления, наблюдавшиеся между сроками (за 1-3 часа до срока); квадратными скобками обозначены град или гололедные отложения с указанием их диаметра в мм.
Облачность - указаны через наклонную черту общая и нижняя облачность в баллах и высота нижней границы облаков в метрах; квадратными скобками обозначены формы облаков: Ci - перистые, Cs - перисто-слоистые, Cc - перисто-кучевые, Ac - высококучевые, As - высокослоистые, Sc - слоисто-кучевые, Ns - слоисто-дождевые, Cu - кучевые, Cb - кучево-дождевые. Подробнее классификацию облаков см. в Атласе облаков (PDF).
T - Температура воздуха - температура, измеренная на высоте 2 м над землей.
Td - Температура точки росы - температура, при понижении до которой содержащийся в воздухе водяной пар достигнет насыщения.
f - Относительная влажность воздуха - влажноcть воздуха, измеренная на высоте 2 м над землей.
Te - Эффективная температура - температура, которую ощущает одетый по сезону человек в тени. Характеристика душности погоды. При расчете учитывается влияние влажности воздуха и скорости ветра на теплоощущения человека.
Tes - Эффективная температура на солнце - температура, которую ощущает человек, с поправкой на солнечный нагрев. Характеристика знойности погоды. Зависит от высоты солнца над горизонтом, облачности и скорости ветра. Ночью, в пасмурную погоду, а также при ветре 12 м/с и более поправка равна нулю.
P - Атмосферное давление - приведенное к уровню моря атмосферное давление.
Po - Атмосферное давление - измеренное на уровне метеостанции атмосферное давление.
Tmin - Минимальная температура - минимум температуры воздуха на высоте 2 м над землей.
Tmax - Максимальная температура - максимум температуры воздуха на высоте 2 м над землей.
R - Количество осадков - Количество выпавших осадков за период времени, мм. При наведении курсора мыши на число - период времени, за который выпало указанное количество осадков.
R24 - Количество осадков - Количество выпавших осадков за 24 часа, мм.
S - Снежный покров - Высота снежного покрова, см. При наведении курсора мыши на число - состояние снежного покрова и степень покрытия местности в баллах.